| time (UTC) | temp C | wind direction | speed KPH | gust KPH | rain 1hr cm | rain 24hr cm | rain mn cm | humidity % | barometer mb |
| 20260906040016 | 27 | 255 | 1.6 | 1.6 | 0.00 | 0.05 | 0.05 | 91 | 1010.7 |
| 20260906035511 | 27 | 178 | 1.6 | 3.2 | 0.00 | 0.05 | 0.05 | 91 | 1010.7 |
| 20260906035007 | 27 | 20 | 1.6 | 1.6 | 0.00 | 0.05 | 0.05 | 91 | 1010.6 |
| 20260906034506 | 27 | 288 | 0.0 | 1.6 | 0.00 | 0.05 | 0.05 | 92 | 1010.9 |
| 20260906034001 | 27 | 115 | 0.0 | 0.0 | 0.00 | 0.05 | 0.05 | 92 | 1010.9 |
| 20260906033456 | 27 | 158 | 3.2 | 3.2 | 0.00 | 0.05 | 0.05 | 92 | 1010.8 |
| 20260906032952 | 27 | 25 | 0.0 | 3.2 | 0.00 | 0.05 | 0.05 | 91 | 1010.8 |
| 20260906032448 | 27 | 161 | 0.0 | 1.6 | 0.00 | 0.05 | 0.05 | 91 | 1010.8 |
| 20260906031943 | 27 | 174 | 0.0 | 1.6 | 0.00 | 0.05 | 0.05 | 91 | 1010.8 |
| 20260906031438 | 27 | 289 | 6.4 | 6.4 | 0.00 | 0.05 | 0.05 | 91 | 1011.0 |
| 20260906030933 | 27 | 177 | 0.0 | 4.8 | 0.00 | 0.05 | 0.05 | 90 | 1010.9 |
| 20260906030428 | 27 | 241 | 0.0 | 4.8 | 0.00 | 0.05 | 0.05 | 90 | 1011.1 |
| 20260906025922 | 27 | 283 | 3.2 | 3.2 | 0.00 | 0.05 | 0.05 | 90 | 1011.0 |
| 20260906025417 | 27 | 193 | 3.2 | 4.8 | 0.00 | 0.05 | 0.05 | 90 | 1011.2 |
| 20260906024916 | 27 | 278 | 0.0 | 3.2 | 0.00 | 0.05 | 0.05 | 89 | 1011.1 |
| 20260906024415 | 27 | 292 | 0.0 | 1.6 | 0.00 | 0.05 | 0.05 | 89 | 1011.3 |
| 20260906023910 | 27 | 60 | 1.6 | 1.6 | 0.00 | 0.05 | 0.05 | 89 | 1011.2 |
| 20260906023407 | 27 | 70 | 0.0 | 3.2 | 0.00 | 0.05 | 0.05 | 88 | 1011.0 |
| 20260906022906 | 27 | 56 | 0.0 | 3.2 | 0.00 | 0.05 | 0.05 | 88 | 1011.0 |
| 20260906022401 | 27 | 294 | 0.0 | 3.2 | 0.00 | 0.05 | 0.05 | 88 | 1010.9 |
| 20260906021857 | 27 | 70 | 0.0 | 3.2 | 0.00 | 0.05 | 0.05 | 88 | 1010.9 |
| 20260906021356 | 27 | 308 | 3.2 | 3.2 | 0.00 | 0.05 | 0.05 | 88 | 1010.8 |
| 20260906020851 | 27 | 62 | 3.2 | 3.2 | 0.00 | 0.05 | 0.05 | 87 | 1010.9 |
| 20260906020351 | 27 | 210 | 0.0 | 6.4 | 0.00 | 0.05 | 0.05 | 87 | 1010.9 |
| 20260906015846 | 27 | 311 | 0.0 | 3.2 | 0.00 | 0.05 | 0.05 | 86 | 1011.2 |
| 20260906015345 | 27 | 229 | 0.0 | 6.4 | 0.00 | 0.05 | 0.05 | 86 | 1010.7 |
| 20260906014844 | 27 | 246 | 3.2 | 3.2 | 0.00 | 0.05 | 0.05 | 85 | 1010.5 |
| 20260906014339 | 27 | 10 | 0.0 | 4.8 | 0.00 | 0.05 | 0.05 | 85 | 1010.7 |
| 20260906013836 | 27 | 262 | 1.6 | 3.2 | 0.00 | 0.05 | 0.05 | 84 | 1010.5 |
| 20260906013331 | 27 | 70 | 0.0 | 8.0 | 0.00 | 0.05 | 0.05 | 84 | 1010.4 |
| 20260906012826 | 27 | 274 | 0.0 | 1.6 | 0.00 | 0.05 | 0.05 | 83 | 1010.3 |
| 20260906012321 | 27 | 248 | 0.0 | 4.8 | 0.00 | 0.05 | 0.05 | 83 | 1010.1 |
| 20260906011815 | 27 | 259 | 1.6 | 1.6 | 0.00 | 0.05 | 0.05 | 82 | 1010.1 |
| 20260906011315 | 27 | 314 | 1.6 | 3.2 | 0.00 | 0.05 | 0.05 | 82 | 1010.1 |
| 20260906010812 | 27 | 250 | 0.0 | 3.2 | 0.00 | 0.05 | 0.05 | 81 | 1010.0 |
| 20260906010308 | 27 | 31 | 0.0 | 3.2 | 0.00 | 0.05 | 0.05 | 81 | 1010.0 |
| 20260906005802 | 27 | 100 | 1.6 | 4.8 | 0.00 | 0.05 | 0.05 | 81 | 1010.0 |
| 20260906005301 | 27 | 98 | 0.0 | 1.6 | 0.00 | 0.05 | 0.05 | 80 | 1010.1 |
| 20260906004800 | 28 | 110 | 0.0 | 3.2 | 0.00 | 0.05 | 0.05 | 80 | 1010.0 |
| 20260906004255 | 28 | 36 | 0.0 | 1.6 | 0.00 | 0.05 | 0.05 | 79 | 1010.0 |
| 20260906003750 | 28 | 30 | 0.0 | 1.6 | 0.00 | 0.05 | 0.05 | 79 | 1009.8 |
| 20260906003246 | 28 | 26 | 0.0 | 1.6 | 0.00 | 0.05 | 0.05 | 79 | 1009.7 |
| 20260906002741 | 28 | 295 | 0.0 | 3.2 | 0.00 | 0.05 | 0.05 | 79 | 1009.5 |
| 20260906002240 | 28 | 303 | 0.0 | 1.6 | 0.00 | 0.05 | 0.05 | 79 | 1009.8 |
| 20260906001736 | 28 | 73 | 0.0 | 3.2 | 0.00 | 0.05 | 0.05 | 78 | 1009.4 |
| 20260906001231 | 28 | 47 | 0.0 | 0.0 | 0.00 | 0.05 | 0.05 | 78 | 1009.5 |
| 20260906000727 | 28 | 84 | 0.0 | 1.6 | 0.00 | 0.05 | 0.05 | 78 | 1009.3 |
| 20260906000226 | 28 | 56 | 0.0 | 1.6 | 0.00 | 0.05 | 0.05 | 78 | 1009.4 |
| 20260905235721 | 28 | 219 | 3.2 | 3.2 | 0.00 | 0.05 | 0.05 | 78 | 1009.4 |
| 20260905235216 | 28 | 144 | 0.0 | 0.0 | 0.00 | 0.05 | 0.05 | 77 | 1009.5 |
| 20260905234711 | 28 | 70 | 0.0 | 0.0 | 0.00 | 0.05 | 0.05 | 77 | 1009.3 |
| 20260905234207 | 29 | 311 | 0.0 | 1.6 | 0.00 | 0.05 | 0.05 | 76 | 1009.3 |
| 20260905233702 | 29 | 70 | 0.0 | 0.0 | 0.00 | 0.05 | 0.05 | 75 | 1009.4 |
| 20260905233201 | 29 | 218 | 0.0 | 3.2 | 0.00 | 0.05 | 0.05 | 75 | 1009.5 |
| 20260905232656 | 29 | 93 | 0.0 | 3.2 | 0.00 | 0.05 | 0.05 | 76 | 1009.5 |
| 20260905232152 | 30 | 47 | 0.0 | 1.6 | 0.00 | 0.05 | 0.05 | 75 | 1009.4 |
| 20260905231647 | 30 | 36 | 0.0 | 3.2 | 0.00 | 0.05 | 0.05 | 73 | 1009.5 |
| 20260905231143 | 30 | 34 | 0.0 | 1.6 | 0.00 | 0.05 | 0.05 | 72 | 1009.6 |
| 20260905230639 | 30 | 67 | 4.8 | 6.4 | 0.00 | 0.05 | 0.05 | 71 | 1009.4 |
| 20260905230136 | 30 | 114 | 4.8 | 4.8 | 0.00 | 0.05 | 0.05 | 72 | 1009.7 |
| 20260905225631 | 30 | 268 | 3.2 | 4.8 | 0.00 | 0.05 | 0.05 | 72 | 1009.5 |
| 20260905225126 | 30 | 121 | 3.2 | 6.4 | 0.00 | 0.05 | 0.05 | 73 | 1009.7 |
| 20260905224625 | 30 | 46 | 1.6 | 4.8 | 0.00 | 0.05 | 0.05 | 73 | 1009.7 |
| 20260905224125 | 30 | 176 | 0.0 | 4.8 | 0.00 | 0.05 | 0.05 | 72 | 1009.8 |
| 20260905223622 | 30 | 298 | 0.0 | 6.4 | 0.00 | 0.05 | 0.05 | 72 | 1010.0 |
| 20260905223118 | 30 | 271 | 0.0 | 6.4 | 0.00 | 0.05 | 0.05 | 71 | 1009.9 |
| 20260905222619 | 31 | 206 | 0.0 | 3.2 | 0.00 | 0.05 | 0.05 | 72 | 1009.9 |
| 20260905222114 | 31 | 228 | 0.0 | 1.6 | 0.00 | 0.05 | 0.05 | 72 | 1010.0 |
| 20260905221610 | 30 | 48 | 0.0 | 3.2 | 0.00 | 0.05 | 0.05 | 71 | 1009.8 |
| 20260905221106 | 31 | 83 | 3.2 | 4.8 | 0.00 | 0.05 | 0.05 | 72 | 1010.1 |
| 20260905220601 | 30 | 127 | 0.0 | 1.6 | 0.00 | 0.05 | 0.05 | 72 | 1010.0 |
| 20260905220057 | 30 | 51 | 0.0 | 4.8 | 0.00 | 0.05 | 0.05 | 70 | 1010.1 |
| 20260905215556 | 31 | 70 | 0.0 | 8.0 | 0.00 | 0.05 | 0.05 | 70 | 1010.0 |
| 20260905215052 | 31 | 96 | 3.2 | 3.2 | 0.00 | 0.05 | 0.05 | 70 | 1009.9 |
| 20260905214548 | 31 | 286 | 0.0 | 4.8 | 0.00 | 0.05 | 0.05 | 70 | 1010.0 |
| 20260905214043 | 30 | 142 | 1.6 | 3.2 | 0.00 | 0.05 | 0.05 | 72 | 1009.9 |
| 20260905213538 | 30 | 171 | 0.0 | 3.2 | 0.00 | 0.05 | 0.05 | 73 | 1010.0 |
| 20260905213034 | 30 | 170 | 3.2 | 3.2 | 0.00 | 0.05 | 0.05 | 73 | 1010.1 |
| 20260905212528 | 30 | 201 | 0.0 | 4.8 | 0.00 | 0.05 | 0.05 | 72 | 1010.2 |
| 20260905212028 | 30 | 214 | 1.6 | 1.6 | 0.00 | 0.05 | 0.05 | 73 | 1010.1 |
| 20260905211523 | 30 | 58 | 1.6 | 3.2 | 0.00 | 0.05 | 0.05 | 72 | 1010.0 |
| 20260905211019 | 30 | 256 | 3.2 | 4.8 | 0.00 | 0.05 | 0.05 | 72 | 1010.2 |
| 20260905210515 | 30 | 78 | 4.8 | 4.8 | 0.00 | 0.05 | 0.05 | 71 | 1010.2 |
| 20260905210014 | 30 | 308 | 1.6 | 4.8 | 0.00 | 0.05 | 0.05 | 72 | 1010.2 |
| 20260905205509 | 30 | 88 | 1.6 | 6.4 | 0.00 | 0.05 | 0.05 | 72 | 1010.4 |
| 20260905205008 | 30 | 47 | 1.6 | 3.2 | 0.00 | 0.05 | 0.05 | 72 | 1010.1 |
| 20260905204503 | 30 | 85 | 3.2 | 6.4 | 0.00 | 0.05 | 0.05 | 72 | 1010.2 |
| 20260905204003 | 30 | 63 | 3.2 | 4.8 | 0.00 | 0.05 | 0.05 | 72 | 1010.4 |
| 20260905203458 | 30 | 50 | 4.8 | 4.8 | 0.00 | 0.05 | 0.05 | 72 | 1010.1 |
| 20260905202953 | 30 | 146 | 1.6 | 4.8 | 0.00 | 0.05 | 0.05 | 72 | 1010.0 |
| 20260905202448 | 30 | 215 | 1.6 | 4.8 | 0.00 | 0.05 | 0.05 | 72 | 1010.0 |
| 20260905201944 | 30 | 102 | 3.2 | 4.8 | 0.00 | 0.05 | 0.05 | 71 | 1010.0 |
| 20260905201439 | 31 | 197 | 0.0 | 4.8 | 0.00 | 0.05 | 0.05 | 70 | 1010.4 |
| 20260905200933 | 31 | 188 | 0.0 | 3.2 | 0.00 | 0.05 | 0.05 | 68 | 1010.1 |
| 20260905200429 | 31 | 72 | 1.6 | 8.0 | 0.00 | 0.05 | 0.05 | 67 | 1010.1 |
| 20260905195927 | 32 | 120 | 3.2 | 4.8 | 0.00 | 0.05 | 0.05 | 65 | 1010.4 |
| 20260905195422 | 32 | 92 | 0.0 | 3.2 | 0.00 | 0.05 | 0.05 | 64 | 1010.1 |
| 20260905194918 | 32 | 152 | 1.6 | 6.4 | 0.00 | 0.05 | 0.05 | 63 | 1010.4 |
| 20260905194417 | 32 | 350 | 3.2 | 4.8 | 0.00 | 0.05 | 0.05 | 63 | 1010.4 |
| 20260905193917 | 33 | 306 | 11.3 | 11.3 | 0.00 | 0.05 | 0.05 | 60 | 1010.2 |
| 20260905193412 | 33 | 280 | 1.6 | 6.4 | 0.00 | 0.05 | 0.05 | 62 | 1010.3 |
| 20260905192907 | 32 | 25 | 3.2 | 8.0 | 0.00 | 0.05 | 0.05 | 63 | 1010.2 |
| 20260905192403 | 32 | 148 | 1.6 | 4.8 | 0.00 | 0.05 | 0.05 | 64 | 1010.2 |
| 20260905191857 | 32 | 358 | 4.8 | 11.3 | 0.00 | 0.05 | 0.05 | 64 | 1010.5 |
| 20260905191356 | 33 | 350 | 4.8 | 9.7 | 0.00 | 0.05 | 0.05 | 63 | 1010.8 |
| 20260905190855 | 33 | 3 | 3.2 | 4.8 | 0.00 | 0.05 | 0.05 | 64 | 1011.0 |
| 20260905190348 | 32 | 0 | 8.0 | 9.7 | 0.00 | 0.05 | 0.05 | 65 | 1010.9 |
| 20260905185848 | 32 | 351 | 4.8 | 6.4 | 0.00 | 0.05 | 0.05 | 65 | 1010.7 |
| 20260905185343 | 32 | 339 | 1.6 | 6.4 | 0.00 | 0.05 | 0.05 | 67 | 1010.8 |
| 20260905184842 | 32 | 323 | 6.4 | 8.0 | 0.00 | 0.05 | 0.05 | 66 | 1010.8 |
| 20260905184341 | 32 | 336 | 4.8 | 9.7 | 0.00 | 0.05 | 0.05 | 65 | 1010.8 |
| 20260905183840 | 32 | 321 | 3.2 | 8.0 | 0.00 | 0.05 | 0.05 | 63 | 1010.9 |
| 20260905183335 | 32 | 298 | 6.4 | 9.7 | 0.00 | 0.05 | 0.05 | 65 | 1011.0 |
| 20260905182830 | 32 | 296 | 4.8 | 9.7 | 0.00 | 0.05 | 0.05 | 66 | 1011.0 |
| 20260905182329 | 32 | 303 | 8.0 | 8.0 | 0.00 | 0.05 | 0.05 | 64 | 1011.0 |
| 20260905181825 | 32 | 30 | 1.6 | 8.0 | 0.00 | 0.05 | 0.05 | 69 | 1011.0 |
| 20260905181324 | 31 | 297 | 4.8 | 6.4 | 0.00 | 0.05 | 0.05 | 70 | 1011.1 |
| 20260905180823 | 31 | 312 | 3.2 | 8.0 | 0.00 | 0.05 | 0.05 | 72 | 1011.3 |
| 20260905180319 | 31 | 351 | 6.4 | 6.4 | 0.00 | 0.05 | 0.05 | 73 | 1011.5 |
| 20260905175814 | 30 | 79 | 0.0 | 3.2 | 0.00 | 0.05 | 0.05 | 75 | 1011.6 |
| 20260905175308 | 30 | 303 | 1.6 | 3.2 | 0.00 | 0.05 | 0.05 | 79 | 1011.5 |
| 20260905174803 | 29 | 201 | 0.0 | 3.2 | 0.00 | 0.05 | 0.05 | 77 | 1011.5 |
| 20260905174300 | 28 | 324 | 3.2 | 3.2 | 0.00 | 0.05 | 0.05 | 81 | 1011.5 |
| 20260905173755 | 29 | 124 | 3.2 | 4.8 | 0.05 | 0.05 | 0.05 | 75 | 1011.7 |
| 20260905173251 | 30 | 106 | 4.8 | 6.4 | 0.00 | 0.05 | 0.05 | 73 | 1011.5 |
| 20260905172750 | 30 | 292 | 8.0 | 9.7 | 0.00 | 0.05 | 0.05 | 74 | 1011.7 |
| 20260905172249 | 31 | 320 | 4.8 | 11.3 | 0.00 | 0.05 | 0.05 | 71 | 1012.0 |
| 20260905171745 | 32 | 36 | 3.2 | 11.3 | 0.00 | 0.05 | 0.05 | 68 | 1012.0 |
| 20260905171242 | 32 | 354 | 3.2 | 8.0 | 0.00 | 0.05 | 0.05 | 68 | 1011.9 |
| 20260905170738 | 31 | 15 | 4.8 | 4.8 | 0.00 | 0.05 | 0.05 | 70 | 1011.9 |
| 20260905170233 | 31 | 341 | 4.8 | 8.0 | 0.13 | 0.05 | 0.05 | 75 | 1012.1 |
| 20260905165732 | 31 | 33 | 4.8 | 6.4 | 0.13 | 0.05 | 0.05 | 75 | 1012.1 |
| 20260905165228 | 32 | 11 | 4.8 | 9.7 | 0.00 | 0.03 | 0.03 | 69 | 1012.2 |
| 20260905164728 | 32 | 331 | 4.8 | 8.0 | 0.00 | 0.03 | 0.03 | 64 | 1012.4 |
| 20260905164223 | 32 | 308 | 8.0 | 8.0 | 0.00 | 0.03 | 0.03 | 65 | 1012.4 |
| 20260905163719 | 32 | 358 | 1.6 | 9.7 | 0.00 | 0.03 | 0.03 | 64 | 1012.5 |
| 20260905163215 | 31 | 48 | 3.2 | 4.8 | 0.00 | 0.03 | 0.03 | 67 | 1012.5 |
| 20260905162711 | 31 | 210 | 0.0 | 8.0 | 0.00 | 0.03 | 0.03 | 70 | 1012.6 |
| 20260905162210 | 31 | 335 | 3.2 | 8.0 | 0.00 | 0.03 | 0.03 | 68 | 1012.7 |
| 20260905161705 | 31 | 299 | 4.8 | 9.7 | 0.00 | 0.03 | 0.03 | 70 | 1012.8 |
| 20260905161203 | 31 | 354 | 4.8 | 6.4 | 0.00 | 0.03 | 0.03 | 70 | 1012.8 |
| 20260905160656 | 31 | 4 | 4.8 | 8.0 | 0.00 | 0.03 | 0.03 | 73 | 1012.7 |
| 20260905160155 | 30 | 297 | 8.0 | 11.3 | 0.00 | 0.03 | 0.03 | 74 | 1013.2 |
| 20260905155650 | 30 | 322 | 1.6 | 9.7 | 0.00 | 0.03 | 0.03 | 75 | 1012.8 |
| 20260905155149 | 30 | 288 | 3.2 | 11.3 | 0.00 | 0.03 | 0.03 | 75 | 1013.2 |
| 20260905154644 | 30 | 328 | 6.4 | 6.4 | 0.00 | 0.03 | 0.03 | 76 | 1012.9 |
| 20260905154139 | 30 | 62 | 0.0 | 4.8 | 0.00 | 0.03 | 0.03 | 80 | 1013.2 |
| 20260905153635 | 30 | 329 | 3.2 | 6.4 | 0.00 | 0.03 | 0.03 | 82 | 1013.2 |
| 20260905153130 | 29 | 14 | 3.2 | 6.4 | 0.00 | 0.03 | 0.03 | 83 | 1013.3 |
| 20260905152625 | 28 | 33 | 1.6 | 1.6 | 0.05 | 0.03 | 0.03 | 86 | 1013.4 |
| 20260905152120 | 28 | 35 | 3.2 | 3.2 | 0.13 | 0.03 | 0.03 | 85 | 1013.3 |
| 20260905151615 | 28 | 15 | 3.2 | 6.4 | 0.00 | 0.00 | 0.00 | 84 | 1013.3 |
| 20260905151111 | 28 | 42 | 3.2 | 6.4 | 0.00 | 0.00 | 0.00 | 82 | 1013.5 |
| 20260905150606 | 28 | 289 | 3.2 | 8.0 | 0.00 | 0.00 | 0.00 | 81 | 1013.3 |
| 20260905150104 | 29 | 338 | 1.6 | 4.8 | 0.00 | 0.00 | 0.00 | 81 | 1013.4 |
| 20260905145603 | 28 | 126 | 0.0 | 4.8 | 0.00 | 0.00 | 0.00 | 83 | 1013.5 |
| 20260905145102 | 28 | 138 | 4.8 | 6.4 | 0.00 | 0.00 | 0.00 | 81 | 1013.3 |
| 20260905144557 | 28 | 73 | 0.0 | 4.8 | 0.00 | 0.00 | 0.00 | 81 | 1013.3 |
| 20260905144056 | 28 | 344 | 3.2 | 4.8 | 0.00 | 0.00 | 0.00 | 82 | 1013.3 |
| 20260905143555 | 28 | 348 | 4.8 | 4.8 | 0.00 | 0.00 | 0.00 | 83 | 1013.1 |
| 20260905143051 | 28 | 36 | 0.0 | 6.4 | 0.00 | 0.00 | 0.00 | 84 | 1013.4 |
| 20260905142549 | 28 | 270 | 3.2 | 6.4 | 0.00 | 0.00 | 0.00 | 84 | 1013.3 |
| 20260905142044 | 28 | 134 | 3.2 | 3.2 | 0.00 | 0.00 | 0.00 | 84 | 1013.5 |
| 20260905141539 | 28 | 330 | 6.4 | 6.4 | 0.00 | 0.00 | 0.00 | 82 | 1013.3 |
| 20260905141035 | 28 | 24 | 4.8 | 4.8 | 0.00 | 0.00 | 0.00 | 84 | 1013.3 |
| 20260905140530 | 28 | 47 | 0.0 | 3.2 | 0.00 | 0.00 | 0.00 | 84 | 1013.4 |
| 20260905140029 | 28 | 357 | 4.8 | 8.0 | 0.00 | 0.00 | 0.00 | 84 | 1013.5 |
| 20260905135525 | 28 | 278 | 0.0 | 3.2 | 0.00 | 0.00 | 0.00 | 85 | 1013.5 |
| 20260905135019 | 28 | 135 | 3.2 | 3.2 | 0.00 | 0.00 | 0.00 | 86 | 1013.2 |
| 20260905134514 | 28 | 306 | 3.2 | 6.4 | 0.00 | 0.00 | 0.00 | 86 | 1013.1 |
| 20260905134013 | 27 | 345 | 4.8 | 6.4 | 0.00 | 0.00 | 0.00 | 87 | 1013.0 |
| 20260905133509 | 27 | 295 | 3.2 | 6.4 | 0.00 | 0.00 | 0.00 | 88 | 1012.9 |
| 20260905133008 | 27 | 284 | 4.8 | 4.8 | 0.00 | 0.00 | 0.00 | 88 | 1013.3 |
| 20260905132503 | 27 | 312 | 3.2 | 3.2 | 0.00 | 0.00 | 0.00 | 88 | 1013.1 |
| 20260905132003 | 27 | 159 | 3.2 | 4.8 | 0.00 | 0.00 | 0.00 | 89 | 1013.0 |
| 20260905131458 | 27 | 333 | 3.2 | 4.8 | 0.00 | 0.00 | 0.00 | 89 | 1013.3 |
| 20260905130954 | 27 | 306 | 3.2 | 4.8 | 0.00 | 0.00 | 0.00 | 89 | 1013.2 |
| 20260905130453 | 27 | 343 | 4.8 | 4.8 | 0.00 | 0.00 | 0.00 | 90 | 1013.4 |
| 20260905125952 | 26 | 320 | 4.8 | 4.8 | 0.00 | 0.00 | 0.00 | 90 | 1013.2 |
| 20260905125447 | 26 | 292 | 1.6 | 4.8 | 0.00 | 0.00 | 0.00 | 90 | 1013.2 |
| 20260905124943 | 26 | 132 | 3.2 | 6.4 | 0.00 | 0.00 | 0.00 | 89 | 1013.4 |
| 20260905124439 | 26 | 242 | 0.0 | 4.8 | 0.00 | 0.00 | 0.00 | 90 | 1013.0 |
| 20260905123934 | 26 | 193 | 0.0 | 6.4 | 0.00 | 0.00 | 0.00 | 91 | 1013.3 |
| 20260905123431 | 26 | 161 | 1.6 | 3.2 | 0.00 | 0.00 | 0.00 | 91 | 1013.1 |
| 20260905122926 | 26 | 47 | 0.0 | 1.6 | 0.00 | 0.00 | 0.00 | 92 | 1013.0 |
| 20260905122425 | 26 | 136 | 3.2 | 6.4 | 0.00 | 0.00 | 0.00 | 92 | 1013.0 |
| 20260905121921 | 26 | 223 | 0.0 | 1.6 | 0.00 | 0.00 | 0.00 | 93 | 1013.1 |
| 20260905121417 | 26 | 239 | 3.2 | 3.2 | 0.00 | 0.00 | 0.00 | 93 | 1013.3 |
| 20260905120915 | 26 | 10 | 3.2 | 3.2 | 0.00 | 0.00 | 0.00 | 94 | 1012.8 |
| 20260905120416 | 25 | 31 | 1.6 | 3.2 | 0.00 | 0.00 | 0.00 | 94 | 1012.8 |
| 20260905115911 | 25 | 98 | 1.6 | 1.6 | 0.00 | 0.00 | 0.00 | 95 | 1012.7 |
| 20260905115410 | 25 | 270 | 0.0 | 0.0 | 0.00 | 0.00 | 0.00 | 95 | 1012.6 |
| 20260905114905 | 25 | 216 | 0.0 | 0.0 | 0.00 | 0.00 | 0.00 | 95 | 1012.6 |
| 20260905114404 | 25 | 170 | 0.0 | 0.0 | 0.00 | 0.00 | 0.00 | 95 | 1012.4 |
| 20260905113904 | 25 | 31 | 0.0 | 1.6 | 0.00 | 0.00 | 0.00 | 95 | 1012.6 |
| 20260905113359 | 25 | 51 | 3.2 | 3.2 | 0.00 | 0.00 | 0.00 | 95 | 1012.2 |
| 20260905112854 | 25 | 38 | 0.0 | 3.2 | 0.00 | 0.00 | 0.00 | 95 | 1012.1 |
| 20260905112349 | 25 | 137 | 0.0 | 3.2 | 0.00 | 0.00 | 0.00 | 95 | 1012.2 |
| 20260905111844 | 25 | 297 | 0.0 | 0.0 | 0.00 | 0.00 | 0.00 | 95 | 1012.1 |
| 20260905111339 | 25 | 158 | 0.0 | 1.6 | 0.00 | 0.00 | 0.00 | 95 | 1012.3 |
| 20260905110838 | 25 | 40 | 1.6 | 3.2 | 0.00 | 0.00 | 0.00 | 95 | 1012.1 |
| 20260905110332 | 25 | 358 | 3.2 | 3.2 | 0.00 | 0.00 | 0.00 | 95 | 1012.2 |
| 20260905105828 | 25 | 238 | 0.0 | 1.6 | 0.00 | 0.00 | 0.00 | 95 | 1012.2 |
| 20260905105327 | 25 | 137 | 0.0 | 3.2 | 0.00 | 0.00 | 0.00 | 95 | 1011.9 |
| 20260905104821 | 25 | 85 | 0.0 | 1.6 | 0.00 | 0.00 | 0.00 | 95 | 1012.1 |
| 20260905104318 | 25 | 230 | 0.0 | 3.2 | 0.00 | 0.00 | 0.00 | 95 | 1011.8 |
| 20260905103817 | 25 | 205 | 0.0 | 4.8 | 0.00 | 0.00 | 0.00 | 95 | 1011.7 |
| 20260905103313 | 25 | 36 | 0.0 | 1.6 | 0.00 | 0.00 | 0.00 | 96 | 1011.7 |
| 20260905102809 | 25 | 138 | 0.0 | 1.6 | 0.00 | 0.00 | 0.00 | 96 | 1011.6 |
| 20260905102306 | 25 | 7 | 0.0 | 3.2 | 0.00 | 0.00 | 0.00 | 96 | 1011.7 |
| 20260905101804 | 25 | 25 | 0.0 | 1.6 | 0.00 | 0.00 | 0.00 | 96 | 1011.6 |
| 20260905101303 | 25 | 147 | 1.6 | 1.6 | 0.00 | 0.00 | 0.00 | 96 | 1011.5 |
| 20260905100757 | 25 | 6 | 0.0 | 1.6 | 0.00 | 0.00 | 0.00 | 96 | 1011.7 |
| 20260905100254 | 25 | 170 | 0.0 | 1.6 | 0.00 | 0.00 | 0.00 | 96 | 1011.8 |
| 20260905095753 | 25 | 13 | 0.0 | 0.0 | 0.00 | 0.00 | 0.00 | 96 | 1011.7 |
| 20260905095247 | 25 | 130 | 0.0 | 1.6 | 0.00 | 0.00 | 0.00 | 95 | 1011.7 |
| 20260905094742 | 25 | 110 | 0.0 | 3.2 | 0.00 | 0.00 | 0.00 | 95 | 1011.8 |
| 20260905094238 | 25 | 122 | 0.0 | 0.0 | 0.00 | 0.00 | 0.00 | 95 | 1012.0 |
| 20260905093736 | 25 | 150 | 0.0 | 3.2 | 0.00 | 0.00 | 0.00 | 95 | 1012.0 |
| 20260905093233 | 25 | 141 | 0.0 | 1.6 | 0.00 | 0.00 | 0.00 | 95 | 1012.0 |
| 20260905092728 | 25 | 88 | 0.0 | 1.6 | 0.00 | 0.00 | 0.00 | 95 | 1011.9 |
| 20260905092223 | 25 | 140 | 3.2 | 4.8 | 0.00 | 0.00 | 0.00 | 95 | 1011.7 |
| 20260905091722 | 25 | 111 | 0.0 | 3.2 | 0.00 | 0.00 | 0.00 | 95 | 1012.2 |
| 20260905091218 | 25 | 81 | 0.0 | 3.2 | 0.00 | 0.00 | 0.00 | 95 | 1012.0 |
| 20260905090716 | 25 | 111 | 0.0 | 3.2 | 0.00 | 0.00 | 0.00 | 95 | 1011.9 |
| 20260905090213 | 25 | 98 | 0.0 | 1.6 | 0.00 | 0.00 | 0.00 | 95 | 1012.0 |
| 20260905085712 | 25 | 78 | 0.0 | 3.2 | 0.00 | 0.00 | 0.00 | 95 | 1011.6 |
| 20260905085207 | 25 | 6 | 0.0 | 1.6 | 0.00 | 0.00 | 0.00 | 95 | 1011.8 |
| 20260905084707 | 25 | 333 | 0.0 | 1.6 | 0.00 | 0.00 | 0.00 | 95 | 1011.5 |
| 20260905084207 | 25 | 195 | 0.0 | 1.6 | 0.00 | 0.00 | 0.00 | 95 | 1011.6 |
| 20260905083701 | 25 | 155 | 3.2 | 3.2 | 0.00 | 0.00 | 0.00 | 95 | 1011.5 |
| 20260905083158 | 25 | 96 | 0.0 | 1.6 | 0.00 | 0.00 | 0.00 | 95 | 1011.5 |
| 20260905082654 | 25 | 13 | 0.0 | 3.2 | 0.00 | 0.00 | 0.00 | 94 | 1011.5 |
| 20260905082149 | 25 | 6 | 1.6 | 3.2 | 0.00 | 0.00 | 0.00 | 94 | 1011.3 |
| 20260905081649 | 25 | 193 | 1.6 | 3.2 | 0.00 | 0.00 | 0.00 | 95 | 1011.4 |
| 20260905081144 | 25 | 237 | 0.0 | 1.6 | 0.00 | 0.00 | 0.00 | 95 | 1011.4 |
| 20260905080644 | 25 | 176 | 0.0 | 1.6 | 0.00 | 0.00 | 0.00 | 95 | 1011.6 |
| 20260905080143 | 25 | 11 | 1.6 | 3.2 | 0.00 | 0.00 | 0.00 | 95 | 1011.4 |
| 20260905075643 | 25 | 296 | 0.0 | 3.2 | 0.00 | 0.00 | 0.00 | 95 | 1011.7 |
| 20260905075142 | 25 | 344 | 1.6 | 4.8 | 0.00 | 0.00 | 0.00 | 95 | 1011.2 |
| 20260905074641 | 25 | 292 | 3.2 | 3.2 | 0.00 | 0.00 | 0.00 | 96 | 1011.6 |
| 20260905074137 | 25 | 167 | 0.0 | 1.6 | 0.00 | 0.00 | 0.00 | 96 | 1011.8 |
| 20260905073633 | 25 | 193 | 0.0 | 1.6 | 0.00 | 0.00 | 0.00 | 96 | 1011.7 |
| 20260905073128 | 25 | 10 | 1.6 | 3.2 | 0.00 | 0.00 | 0.00 | 96 | 1011.8 |
| 20260905072627 | 25 | 137 | 0.0 | 1.6 | 0.00 | 0.00 | 0.00 | 96 | 1011.8 |
| 20260905072122 | 25 | 135 | 0.0 | 1.6 | 0.00 | 0.00 | 0.00 | 96 | 1011.9 |
| 20260905071619 | 25 | 250 | 0.0 | 1.6 | 0.00 | 0.00 | 0.00 | 95 | 1012.1 |
| 20260905071114 | 25 | 271 | 0.0 | 0.0 | 0.00 | 0.00 | 0.00 | 95 | 1012.2 |
| 20260905070610 | 25 | 211 | 0.0 | 0.0 | 0.00 | 0.00 | 0.00 | 95 | 1012.1 |
| 20260905070105 | 25 | 291 | 0.0 | 0.0 | 0.00 | 0.00 | 0.00 | 95 | 1012.2 |
| 20260905065603 | 25 | 291 | 0.0 | 0.0 | 0.00 | 0.00 | 0.00 | 94 | 1012.4 |
| 20260905065058 | 25 | 237 | 0.0 | 0.0 | 0.00 | 0.00 | 0.00 | 94 | 1012.2 |
| 20260905064553 | 25 | 56 | 0.0 | 3.2 | 0.00 | 0.00 | 0.00 | 94 | 1012.1 |
| 20260905064048 | 25 | 144 | 0.0 | 3.2 | 0.00 | 0.00 | 0.00 | 95 | 1012.2 |
| 20260905063547 | 25 | 137 | 0.0 | 1.6 | 0.00 | 0.00 | 0.00 | 95 | 1012.6 |
| 20260905063044 | 25 | 13 | 0.0 | 0.0 | 0.00 | 0.00 | 0.00 | 95 | 1012.4 |
| 20260905062538 | 25 | 36 | 0.0 | 0.0 | 0.00 | 0.00 | 0.00 | 95 | 1012.3 |
| 20260905062033 | 25 | 91 | 0.0 | 0.0 | 0.00 | 0.00 | 0.00 | 94 | 1012.3 |
| 20260905061528 | 25 | 223 | 0.0 | 0.0 | 0.00 | 0.00 | 0.00 | 94 | 1012.4 |
| 20260905061027 | 25 | 223 | 0.0 | 1.6 | 0.00 | 0.00 | 0.00 | 94 | 1012.5 |
| 20260905060523 | 25 | 144 | 0.0 | 1.6 | 0.00 | 0.00 | 0.00 | 94 | 1012.6 |
| 20260905060019 | 25 | 77 | 0.0 | 3.2 | 0.00 | 0.00 | 0.00 | 94 | 1012.5 |
| 20260905055517 | 25 | 317 | 1.6 | 3.2 | 0.00 | 0.00 | 0.00 | 94 | 1012.7 |
| 20260905055012 | 25 | 308 | 0.0 | 3.2 | 0.00 | 0.00 | 0.00 | 94 | 1012.5 |
| 20260905054508 | 25 | 299 | 0.0 | 4.8 | 0.00 | 0.00 | 0.00 | 94 | 1012.6 |
| 20260905054003 | 25 | 144 | 0.0 | 1.6 | 0.00 | 0.00 | 0.00 | 94 | 1012.7 |
| 20260905053457 | 25 | 100 | 0.0 | 3.2 | 0.00 | 0.00 | 0.00 | 93 | 1012.7 |
| 20260905052953 | 25 | 190 | 0.0 | 1.6 | 0.00 | 0.00 | 0.00 | 93 | 1012.8 |
| 20260905052453 | 25 | 315 | 0.0 | 0.0 | 0.00 | 0.00 | 0.00 | 93 | 1013.0 |
| 20260905051952 | 25 | 144 | 0.0 | 3.2 | 0.00 | 0.00 | 0.00 | 93 | 1012.8 |
| 20260905051447 | 25 | 172 | 0.0 | 4.8 | 0.00 | 0.00 | 0.00 | 93 | 1012.7 |
| 20260905050945 | 25 | 305 | 0.0 | 0.0 | 0.00 | 0.00 | 0.00 | 93 | 1012.9 |
| 20260905050440 | 25 | 80 | 3.2 | 3.2 | 0.00 | 0.00 | 0.00 | 93 | 1013.3 |
| 20260905045936 | 25 | 249 | 0.0 | 3.2 | 0.00 | 0.00 | 0.00 | 93 | 1013.3 |
| 20260905045431 | 25 | 325 | 0.0 | 1.6 | 0.00 | 0.00 | 0.00 | 93 | 1013.1 |
| 20260905044927 | 25 | 134 | 0.0 | 0.0 | 0.00 | 0.00 | 0.00 | 93 | 1013.1 |
| 20260905044421 | 25 | 86 | 0.0 | 3.2 | 0.00 | 0.00 | 0.00 | 93 | 1013.0 |
| 20260905043921 | 25 | 186 | 0.0 | 0.0 | 0.00 | 0.00 | 0.00 | 93 | 1013.3 |
| 20260905043420 | 25 | 306 | 0.0 | 1.6 | 0.00 | 0.00 | 0.00 | 93 | 1012.8 |
| 20260905042915 | 25 | 87 | 1.6 | 1.6 | 0.00 | 0.00 | 0.00 | 93 | 1013.0 |
| 20260905042410 | 25 | 198 | 0.0 | 3.2 | 0.00 | 0.00 | 0.00 | 93 | 1013.0 |
| 20260905041905 | 25 | 125 | 0.0 | 4.8 | 0.00 | 0.00 | 0.00 | 92 | 1013.0 |
| 20260905041401 | 25 | 54 | 0.0 | 3.2 | 0.00 | 0.00 | 0.00 | 92 | 1013.2 |
| 20260905040855 | 25 | 170 | 1.6 | 3.2 | 0.00 | 0.00 | 0.00 | 93 | 1013.2 |
| 20260905040355 | 25 | 322 | 3.2 | 6.4 | 0.00 | 0.00 | 0.00 | 93 | 1013.2 |